TimeEST,TemperatureF,Dew PointF,Humidity,Sea Level PressureIn,VisibilityMPH,Wind Direction,Wind SpeedMPH,Gust SpeedMPH,PrecipitationIn,Events,Conditions,WindDirDegrees,DateUTC
12:15 AM,21.2,17.6,86,30.33,10.0,Calm,Calm,-,N/A,,Clear,0,2013-03-09 05:15:00
12:35 AM,23.0,19.4,86,30.33,10.0,Calm,Calm,-,N/A,,Clear,0,2013-03-09 05:35:00
12:55 AM,23.0,17.6,80,30.33,10.0,Calm,Calm,-,N/A,,Clear,0,2013-03-09 05:55:00
1:15 AM,21.2,17.6,86,30.33,10.0,Calm,Calm,-,N/A,,Clear,0,2013-03-09 06:15:00
1:35 AM,21.2,19.4,93,30.32,10.0,Calm,Calm,-,N/A,,Clear,0,2013-03-09 06:35:00
1:55 AM,21.2,17.6,86,30.31,10.0,NNE,3.5,-,N/A,,Clear,20,2013-03-09 06:55:00
2:15 AM,21.2,17.6,86,30.30,10.0,Calm,Calm,-,N/A,,Clear,0,2013-03-09 07:15:00
2:35 AM,21.2,17.6,86,30.29,10.0,ENE,3.5,-,N/A,,Clear,60,2013-03-09 07:35:00
2:55 AM,19.4,17.6,93,30.29,10.0,Calm,Calm,-,N/A,,Clear,0,2013-03-09 07:55:00
3:15 AM,21.2,17.6,86,30.29,10.0,Calm,Calm,-,N/A,,Clear,0,2013-03-09 08:15:00
3:35 AM,19.4,15.8,86,30.29,10.0,Calm,Calm,-,N/A,,Clear,0,2013-03-09 08:35:00
3:55 AM,19.4,15.8,86,30.30,10.0,Calm,Calm,-,N/A,,Clear,0,2013-03-09 08:55:00
4:15 AM,19.4,15.8,86,30.30,10.0,Calm,Calm,-,N/A,,Clear,0,2013-03-09 09:15:00
4:35 AM,19.4,17.6,93,30.30,10.0,Calm,Calm,-,N/A,,Clear,0,2013-03-09 09:35:00
4:55 AM,19.4,17.6,93,30.29,10.0,Calm,Calm,-,N/A,,Clear,0,2013-03-09 09:55:00
5:15 AM,19.4,17.6,93,30.29,10.0,Calm,Calm,-,N/A,,Clear,0,2013-03-09 10:15:00
5:35 AM,19.4,17.6,93,30.29,10.0,North,3.5,-,N/A,,Clear,0,2013-03-09 10:35:00
5:55 AM,19.4,17.6,93,30.30,10.0,Calm,Calm,-,N/A,,Clear,0,2013-03-09 10:55:00
6:15 AM,17.6,15.8,93,30.30,10.0,Calm,Calm,-,N/A,,Clear,0,2013-03-09 11:15:00
6:35 AM,17.6,17.6,100,30.30,10.0,Calm,Calm,-,N/A,,Clear,0,2013-03-09 11:35:00
6:55 AM,19.4,17.6,93,30.31,10.0,Calm,Calm,-,N/A,,Clear,0,2013-03-09 11:55:00
7:15 AM,19.4,17.6,93,30.32,10.0,Calm,Calm,-,N/A,,Clear,0,2013-03-09 12:15:00
7:35 AM,19.4,17.6,93,30.33,10.0,Calm,Calm,-,N/A,,Clear,0,2013-03-09 12:35:00
7:55 AM,21.2,19.4,93,30.33,10.0,Calm,Calm,-,N/A,,Clear,0,2013-03-09 12:55:00
8:15 AM,23.0,19.4,86,30.34,10.0,NNE,3.5,-,N/A,,Clear,20,2013-03-09 13:15:00
8:35 AM,23.0,21.2,93,30.34,10.0,Calm,Calm,-,N/A,,Clear,0,2013-03-09 13:35:00
8:55 AM,26.6,21.2,80,30.35,10.0,Calm,Calm,-,N/A,,Clear,0,2013-03-09 13:55:00
9:15 AM,28.4,23.0,80,30.34,10.0,NNE,3.5,-,N/A,,Clear,20,2013-03-09 14:15:00
9:35 AM,28.4,23.0,80,30.34,10.0,North,3.5,-,N/A,,Clear,350,2013-03-09 14:35:00
9:55 AM,30.2,23.0,75,30.34,10.0,Calm,Calm,-,N/A,,Clear,0,2013-03-09 14:55:00
10:15 AM,32.0,23.0,69,30.33,10.0,North,3.5,-,N/A,,Clear,10,2013-03-09 15:15:00
10:35 AM,32.0,23.0,69,30.34,10.0,Calm,Calm,-,N/A,,Clear,0,2013-03-09 15:35:00
10:55 AM,33.8,23.0,65,30.33,10.0,Calm,Calm,-,N/A,,Clear,0,2013-03-09 15:55:00
11:15 AM,35.6,24.8,65,30.33,10.0,North,4.6,-,N/A,,Clear,10,2013-03-09 16:15:00
11:35 AM,37.4,24.8,60,30.33,10.0,Calm,Calm,-,N/A,,Clear,0,2013-03-09 16:35:00
11:55 AM,37.4,24.8,60,30.33,10.0,Calm,Calm,-,N/A,,Clear,0,2013-03-09 16:55:00
12:15 PM,41.0,26.6,57,30.31,10.0,Calm,Calm,-,N/A,,Clear,0,2013-03-09 17:15:00
12:35 PM,42.8,24.8,49,30.30,10.0,North,4.6,-,N/A,,Clear,0,2013-03-09 17:35:00
12:55 PM,44.6,26.6,49,30.29,10.0,Calm,Calm,-,N/A,,Clear,0,2013-03-09 17:55:00
1:15 PM,46.4,21.2,37,30.29,10.0,ESE,5.8,-,N/A,,Clear,120,2013-03-09 18:15:00
1:35 PM,48.2,21.2,34,30.27,10.0,SSE,5.8,-,N/A,,Clear,160,2013-03-09 18:35:00
1:55 PM,48.2,19.4,32,30.27,10.0,East,4.6,-,N/A,,Clear,80,2013-03-09 18:55:00
2:15 PM,50.0,19.4,30,30.26,10.0,East,5.8,-,N/A,,Clear,80,2013-03-09 19:15:00
2:35 PM,50.0,19.4,30,30.26,10.0,East,3.5,-,N/A,,Clear,80,2013-03-09 19:35:00
2:55 PM,50.0,21.2,32,30.25,10.0,ENE,6.9,-,N/A,,Clear,70,2013-03-09 19:55:00
3:15 PM,51.8,19.4,28,30.25,10.0,East,4.6,-,N/A,,Clear,80,2013-03-09 20:15:00
3:35 PM,51.8,19.4,28,30.25,10.0,ESE,6.9,-,N/A,,Clear,110,2013-03-09 20:35:00
3:55 PM,51.8,19.4,28,30.25,10.0,ESE,4.6,-,N/A,,Clear,120,2013-03-09 20:55:00
4:15 PM,51.8,19.4,28,30.24,10.0,East,3.5,-,N/A,,Clear,80,2013-03-09 21:15:00
4:35 PM,51.8,19.4,28,30.24,10.0,East,3.5,-,N/A,,Clear,90,2013-03-09 21:35:00
4:55 PM,51.8,19.4,28,30.23,10.0,ESE,4.6,-,N/A,,Clear,120,2013-03-09 21:55:00
5:15 PM,50.0,19.4,30,30.23,10.0,Calm,Calm,-,N/A,,Clear,0,2013-03-09 22:15:00
5:35 PM,50.0,19.4,30,30.23,10.0,East,3.5,-,N/A,,Clear,90,2013-03-09 22:35:00
5:55 PM,50.0,19.4,30,30.23,10.0,ESE,3.5,-,N/A,,Clear,110,2013-03-09 22:55:00
6:15 PM,48.2,19.4,32,30.24,10.0,East,3.5,-,N/A,,Clear,100,2013-03-09 23:15:00
6:35 PM,46.4,17.6,32,30.24,10.0,Calm,Calm,-,N/A,,Clear,0,2013-03-09 23:35:00
6:55 PM,46.4,17.6,32,30.24,10.0,Calm,Calm,-,N/A,,Clear,0,2013-03-09 23:55:00
7:15 PM,44.6,17.6,34,30.24,10.0,Calm,Calm,-,N/A,,Clear,0,2013-03-10 00:15:00
7:35 PM,44.6,17.6,34,30.25,10.0,Calm,Calm,-,N/A,,Clear,0,2013-03-10 00:35:00
7:55 PM,42.8,17.6,36,30.25,10.0,Calm,Calm,-,N/A,,Clear,0,2013-03-10 00:55:00
8:15 PM,41.0,19.4,42,30.25,10.0,Calm,Calm,-,N/A,,Clear,0,2013-03-10 01:15:00
8:35 PM,39.2,21.2,49,30.25,10.0,Calm,Calm,-,N/A,,Clear,0,2013-03-10 01:35:00
8:55 PM,37.4,23.0,56,30.25,10.0,NNE,4.6,-,N/A,,Clear,20,2013-03-10 01:55:00
9:15 PM,37.4,23.0,56,30.26,10.0,NNE,3.5,-,N/A,,Clear,20,2013-03-10 02:15:00
9:35 PM,35.6,21.2,56,30.26,10.0,North,5.8,-,N/A,,Clear,10,2013-03-10 02:35:00
9:55 PM,33.8,21.2,60,30.26,10.0,Calm,Calm,-,N/A,,Clear,0,2013-03-10 02:55:00
10:15 PM,32.0,23.0,69,30.27,10.0,Calm,Calm,-,N/A,,Clear,0,2013-03-10 03:15:00
10:35 PM,32.0,23.0,69,30.27,10.0,Calm,Calm,-,N/A,,Clear,0,2013-03-10 03:35:00
10:55 PM,32.0,23.0,69,30.27,10.0,NE,3.5,-,N/A,,Clear,40,2013-03-10 03:55:00
11:15 PM,32.0,23.0,69,30.27,10.0,North,4.6,-,N/A,,Clear,0,2013-03-10 04:15:00
11:35 PM,33.8,23.0,65,30.26,10.0,NNE,8.1,-,N/A,,Clear,20,2013-03-10 04:35:00
11:55 PM,32.0,23.0,69,30.26,10.0,Calm,Calm,-,N/A,,Clear,0,2013-03-10 04:55:00